[[{"header":{"parameterUnit":"m.s-1","parameterCategory":1,"la1":30.2991,"la2":30.254,"lo1":-89.0895,"lo2":-89.0444,"dy":0.0017,"dx":0.0017,"nx":28,"ny":28,"refTime":"2023-10-28T21:00:00:Z","depth":0,"parameterNumber":2,"parameterNumberName":"U-component_of_WINDS"},"data":[0,0,0,0,0,0,0,0,0,0,0,0,0,0,0,0,0,0,0,0,0,0,0,0,0,0,0,0,0,0,0,0,0,0,0,0,0,0,0,0,0,0,0,0,0,0,0,0,0,0,0,0,0,0,0,0,0,0,-1.1459,-1.1462,0,-1.1741,-1.1744,-1.1748,-1.1955,-1.1957,-1.1959,-1.1961,-1.2243,-1.2249,-1.2255,0,0,0,0,0,0,0,0,0,0,0,0,0,-1.1094,-1.1099,-1.1459,-1.1462,-1.1466,-1.1741,-1.1745,-1.1748,-1.1955,-1.1957,-1.1959,-1.1961,-1.2242,-1.2248,-1.2255,0,0,0,0,0,0,0,0,0,0,0,0,0,-1.1301,-1.1101,-1.1458,-1.1602,-1.1618,-1.174,-1.1745,-1.1749,-1.1955,-1.1957,-1.196,-1.1963,-1.2239,-1.2248,-1.2256,-1.2256,0,0,-1.2283,-1.2287,0,0,0,0,0,0,0,0,-1.1289,-1.1314,-1.1578,-1.1593,-1.161,-1.1816,-1.172,-1.1919,-1.1954,-1.1826,-1.1961,-1.1964,-1.2099,-1.2119,-1.2166,-1.2269,-1.2281,-1.2284,-1.2289,-1.2293,-1.2295,0,0,0,0,0,0,0,-1.1275,-1.1303,-1.157,-1.1581,-1.1601,-1.1651,-1.1684,-1.1758,-1.1944,-1.1838,-1.1854,-1.1884,-1.2108,-1.2157,-1.2174,-1.2285,-1.2284,-1.2291,-1.2297,-1.23,-1.2402,-1.24,0,0,0,0,0,0,-1.1238,-1.129,-1.1562,-1.1579,-1.1453,-1.1655,-1.1692,-1.1747,-1.1943,-1.1976,-1.1882,-1.1893,-1.2141,-1.2164,-1.2185,-1.2197,-1.2293,-1.2301,-1.2306,-1.2405,-1.2402,-1.2399,0,0,0,0,0,0,-1.123,-1.1261,-1.155,-1.1439,-1.148,-1.1659,-1.1719,-1.1751,-1.1801,-1.1977,-1.201,-1.1898,-1.2144,-1.2172,-1.2237,-1.221,-1.2305,-1.2313,-1.2408,-1.2404,-1.24,-1.222,0,0,0,0,0,0,-1.1218,-1.1256,-1.1259,-1.1438,-1.1485,-1.1599,-1.1718,-1.1755,-1.1816,-1.1833,-1.2001,-1.2031,-1.2148,-1.2223,-1.2246,-1.2223,-1.232,-1.2411,-1.2406,-1.2401,-1.2229,-1.2211,-1.2195,0,0,0,0,0,-1.1205,-1.1196,-1.1258,-1.129,-1.1492,-1.1597,-1.1624,-1.176,-1.1813,-1.1816,-1.193,-1.2026,-1.2209,-1.2228,-1.2255,-1.2235,-1.2413,-1.2407,-1.2402,-1.2237,-1.2215,-1.2195,0,0,0,0,0,0,-1.1008,-1.1222,-1.1294,-1.1343,-1.145,-1.1632,-1.164,-1.1731,-1.1825,-1.1837,-1.2,-1.2036,-1.2083,-1.2166,-1.2183,-1.2245,-1.2323,-1.2323,-1.2189,-1.2169,-1.2151,-1.213,-1.2327,0,0,0,0,0,-1.0971,-1.1039,-1.1222,-1.1248,-1.1298,-1.1459,-1.151,-1.1606,-1.1723,-1.1769,-1.1887,-1.1995,-1.2078,-1.2128,-1.2213,-1.2243,-1.2282,-1.2243,-1.2225,-1.221,-1.2207,-1.2229,-1.2213,-1.238,-1.238,-1.238,0,0,-1.0894,-1.1019,-1.1052,-1.1212,-1.1306,-1.1371,-1.1496,-1.156,-1.161,-1.1778,-1.1847,-1.1937,-1.2068,-1.2115,-1.2142,-1.2186,-1.217,-1.2203,-1.219,-1.2195,-1.2221,-1.2205,-1.2191,-1.2376,-1.2377,-1.2378,0,0,-1.0787,-1.0889,-1.0922,-1.1014,-1.1156,-1.1264,-1.1271,-1.1439,-1.1506,-1.1578,-1.1705,-1.1766,-1.1904,-1.1993,-1.2056,-1.1982,-1.2074,-1.2005,-1.1914,-1.1933,-1.192,-1.1909,-1.1881,-1.187,-1.2002,-1.2001,-1.2001,0,-1.0673,-1.0779,-1.0926,-1.0983,-1.1049,-1.1206,-1.1239,-1.1321,-1.1482,-1.1523,-1.1571,-1.1748,-1.1847,-1.1917,-1.1899,-1.1945,-1.1958,-1.1986,-1.191,-1.19,-1.1892,-1.1868,-1.1858,-1.1992,-1.1993,-1.1994,-1.1995,0,-1.063,-1.0701,-1.071,-1.0864,-1.0931,-1.0975,-1.1128,-1.1177,-1.1267,-1.1368,-1.1439,-1.1565,-1.1678,-1.1702,-1.179,-1.1784,-1.1807,-1.1879,-1.1961,-1.1865,-1.1845,-1.1837,-1.1979,-1.1982,-1.1985,-1.1987,0,0,-1.0408,-1.0643,-1.0643,-1.0714,-1.0882,-1.0939,-1.099,-1.1103,-1.1141,-1.1247,-1.1293,-1.1407,-1.1476,-1.1547,-1.1646,-1.1663,-1.1595,-1.1735,-1.174,-1.1703,-1.1596,-1.1539,-1.1526,-1.1658,-1.1657,-1.1656,-1.1584,0,-1.0326,-1.0427,-1.0561,-1.0617,-1.0683,-1.0833,-1.0877,-1.0984,-1.108,-1.1149,-1.1256,-1.1333,-1.1419,-1.1463,-1.1486,-1.1598,-1.1576,-1.1606,-1.1701,-1.1702,-1.1662,-1.1516,-1.1456,-1.1382,-1.1578,-1.1576,-1.1576,0,-1.0244,-1.0343,-1.0405,-1.0567,-1.06,-1.0637,-1.0751,-1.0816,-1.094,-1.1009,-1.1088,-1.1196,-1.1256,-1.133,-1.1414,-1.1431,-1.1478,-1.1539,-1.154,-1.1553,-1.1632,-1.1523,-1.1362,-1.135,-1.1565,-1.1566,-1.1566,0,-1.0073,-1.0222,-1.0279,-1.0335,-1.0526,-1.0548,-1.0628,-1.0755,-1.0814,-1.0913,-1.0953,-1.1057,-1.1113,-1.1191,-1.1323,-1.1365,-1.1392,-1.1478,-1.145,-1.1446,-1.1448,-1.1445,-1.129,-1.1479,-1.1479,-1.1479,-1.148,0,-0.9968,-0.9999,-1.0205,-1.0238,-1.0278,-1.0432,-1.0466,-1.056,-1.0671,-1.0726,-1.0862,-1.0909,-1.1082,-1.1149,-1.1253,-1.1307,-1.1331,-1.1388,-1.1415,-1.1375,-1.1368,-1.1407,-1.1415,-1.1477,-1.1477,-1.1478,-1.1478,0,-0.9783,-0.9922,-0.9993,-1.0168,-1.0213,-1.0234,-1.0383,-1.0421,-1.0526,-1.0593,-1.0617,-1.078,-1.0867,-1.1007,-1.1135,-1.1205,-1.1239,-1.1285,-1.1197,-1.1213,-1.1177,-1.1178,-1.1041,-1.1031,-1.1225,-1.1223,-1.1221,0,-0.9706,-0.9734,-0.9912,-0.9958,-1.0034,-1.0107,-1.0168,-1.032,-1.0378,-1.0521,-1.0541,-1.0639,-1.0725,-1.0857,-1.0986,-1.1084,-1.1133,-1.1078,-1.1149,-1.1108,-1.1131,-1.1128,-1.1131,-1.1061,-1.1058,-1.1056,-1.1054,0,-0.9554,-0.9621,-0.9705,-0.9811,-0.988,-0.9971,-1.0069,-1.0099,-1.0273,-1.033,-1.0422,-1.0488,-1.0619,-1.0714,-1.0831,-1.0913,-1.1011,-1.1031,-1.103,-1.0989,-1.0937,-1.0964,-1.1151,-1.1033,-1.1035,-1.1037,-1.1038,-1.1039,-0.9421,-0.9452,-0.9582,-0.967,-0.976,-0.9848,-0.9892,-1.0002,-1.0081,-1.02,-1.0285,-1.037,-1.0493,-1.066,-1.0737,-1.0805,-1.0849,-1.0847,-1.0846,-1.0843,-1.0828,-1.0926,-1.0827,-1.0828,-1.0828,-1.0829,-1.083,0,-0.9275,-0.9366,-0.9445,-0.9578,-0.9646,-0.9735,-0.9848,-0.9899,-0.9972,-1.0079,-1.0162,-1.0266,-1.0358,-1.0495,-1.0598,-1.0627,-1.0675,-1.0648,-1.0647,-1.0665,-1.0783,-1.0774,-1.0608,-1.0608,-1.0608,-1.0608,-1.0608,-1.0608,-0.9207,-0.9265,-0.9347,-0.945,-0.9541,-0.9626,-0.9682,-0.9764,-0.985,-0.996,-1.0038,-1.0127,-1.0246,-1.0359,-1.0448,-1.0486,-1.0517,-1.0477,-1.0528,-1.0636,-1.0656,-1.0676,-1.0668,-1.0482,-1.0482,-1.0405,-1.0404,-1.0403]},{"header":{"parameterUnit":"m.s-1","parameterCategory":1,"la1":30.2991,"la2":30.254,"lo1":-89.0895,"lo2":-89.0444,"dy":0.0017,"dx":0.0017,"nx":28,"ny":28,"refTime":"2023-10-28T21:00:00:Z","depth":0,"parameterNumber":3,"parameterNumberName":"V-component_of_WINDS"},"data":[0,0,0,0,0,0,0,0,0,0,0,0,0,0,0,0,0,0,0,0,0,0,0,0,0,0,0,0,0,0,0,0,0,0,0,0,0,0,0,0,0,0,0,0,0,0,0,0,0,0,0,0,0,0,0,0,0,0,2.4867,2.4871,0,2.5211,2.5215,2.5218,2.5343,2.5342,2.5341,2.5339,2.5682,2.5692,2.5702,0,0,0,0,0,0,0,0,0,0,0,0,0,2.431,2.4319,2.4867,2.4871,2.4876,2.521,2.5215,2.5219,2.5343,2.5342,2.534,2.5339,2.5679,2.5691,2.5703,0,0,0,0,0,0,0,0,0,0,0,0,0,2.4592,2.4322,2.4866,2.4978,2.4991,2.5209,2.5215,2.5221,2.5343,2.5342,2.534,2.5338,2.5675,2.569,2.5705,2.5834,0,0,2.5752,2.5758,0,0,0,0,0,0,0,0,2.4576,2.4612,2.4957,2.4971,2.4986,2.5232,2.5144,2.5426,2.5344,2.5209,2.5339,2.5337,2.5533,2.556,2.5628,2.5851,2.5865,2.5753,2.5763,2.5769,2.5773,0,0,0,0,0,0,0,2.4556,2.4598,2.5003,2.4962,2.498,2.5008,2.5046,2.5198,2.5377,2.5221,2.5231,2.527,2.5541,2.5613,2.5637,2.587,2.5753,2.5766,2.5776,2.5782,2.6213,2.6215,0,0,0,0,0,0,2.4519,2.4581,2.4992,2.5013,2.4773,2.5019,2.5062,2.5155,2.5376,2.5408,2.5271,2.5275,2.5588,2.5619,2.565,2.5815,2.5769,2.5783,2.5792,2.6211,2.6214,2.6216,0,0,0,0,0,0,2.4507,2.4555,2.4978,2.48,2.4856,2.5031,2.5134,2.5163,2.5235,2.5414,2.5445,2.5313,2.5588,2.5628,2.5788,2.5829,2.579,2.5804,2.6208,2.6212,2.6215,2.6146,0,0,0,0,0,0,2.449,2.4549,2.4603,2.48,2.4865,2.5113,2.5137,2.5171,2.5262,2.527,2.5461,2.5491,2.559,2.5764,2.5803,2.5849,2.5816,2.6205,2.621,2.6214,2.6146,2.6147,2.6148,0,0,0,0,0,2.447,2.4568,2.4605,2.4654,2.4936,2.5115,2.5152,2.5266,2.5265,2.5319,2.5433,2.5485,2.5818,2.578,2.5824,2.5875,2.6203,2.6208,2.6213,2.6145,2.6147,2.6148,0,0,0,0,0,0,2.4369,2.4596,2.4639,2.4805,2.494,2.5136,2.5207,2.5264,2.54,2.5401,2.5534,2.5576,2.5724,2.5816,2.5769,2.6011,2.6013,2.6027,2.5946,2.5949,2.595,2.5925,2.5829,0,0,0,0,0,2.4366,2.4495,2.4686,2.4814,2.488,2.5031,2.5114,2.519,2.5334,2.5391,2.5517,2.5652,2.5787,2.5873,2.6007,2.6159,2.6201,2.6216,2.6217,2.6217,2.6228,2.6313,2.6321,2.6233,2.6233,2.6233,0,0,2.4361,2.4502,2.4575,2.4797,2.4911,2.5039,2.5079,2.5213,2.5309,2.541,2.557,2.5666,2.5825,2.5981,2.6056,2.6062,2.6261,2.6223,2.6222,2.6233,2.6319,2.6327,2.6334,2.6236,2.6236,2.6235,0,0,2.4418,2.4538,2.4658,2.4771,2.4943,2.5043,2.507,2.5258,2.5327,2.5489,2.5568,2.5681,2.5912,2.6022,2.6107,2.6203,2.6255,2.6243,2.6249,2.633,2.6337,2.6344,2.6377,2.6387,2.6253,2.6252,2.6252,0,2.439,2.459,2.4711,2.4842,2.4936,2.5036,2.5156,2.5258,2.5464,2.5525,2.5529,2.582,2.5934,2.6116,2.6139,2.6206,2.624,2.6222,2.6327,2.6335,2.6343,2.6375,2.6388,2.625,2.625,2.625,2.6251,0,2.4546,2.4682,2.4757,2.4956,2.5058,2.5182,2.532,2.5408,2.5474,2.5572,2.5734,2.5875,2.6038,2.6087,2.6152,2.6278,2.6276,2.6301,2.6307,2.6346,2.6379,2.6393,2.6246,2.6247,2.6248,2.6248,0,0,2.455,2.4814,2.4839,2.493,2.5126,2.5232,2.5359,2.5522,2.5594,2.5731,2.584,2.6031,2.6056,2.6153,2.6231,2.6302,2.6367,2.6319,2.6325,2.6323,2.6512,2.6491,2.6504,2.6403,2.6405,2.6408,2.6498,0,2.4633,2.4868,2.498,2.5164,2.5291,2.5386,2.5496,2.5626,2.5721,2.5839,2.5942,2.6075,2.6099,2.6158,2.6233,2.6343,2.6407,2.6338,2.6502,2.6506,2.6459,2.6522,2.6501,2.658,2.6512,2.6514,2.6516,0,2.4761,2.4901,2.5098,2.5278,2.5335,2.5433,2.559,2.5703,2.585,2.5914,2.6021,2.6097,2.623,2.6225,2.6409,2.636,2.6433,2.6496,2.6502,2.6522,2.6513,2.6542,2.6608,2.6619,2.6538,2.6536,2.6534,0,2.4744,2.498,2.5129,2.5204,2.5417,2.5483,2.5574,2.5722,2.5811,2.5947,2.6006,2.6154,2.6235,2.6346,2.6457,2.6443,2.6629,2.6634,2.6683,2.668,2.6719,2.6715,2.6796,2.6765,2.6765,2.6765,2.6764,0,2.4824,2.4941,2.5124,2.5215,2.5348,2.5474,2.56,2.5698,2.5828,2.5937,2.6027,2.6127,2.6269,2.6385,2.6473,2.6611,2.6646,2.6699,2.6721,2.6692,2.6684,2.6741,2.6738,2.6768,2.6767,2.6767,2.6766,0,2.4828,2.4955,2.5124,2.5312,2.5362,2.5451,2.5611,2.5701,2.5799,2.5937,2.5976,2.6129,2.6271,2.6393,2.6579,2.6638,2.678,2.6806,2.6731,2.6742,2.6785,2.6778,2.6906,2.6928,2.688,2.6881,2.6881,0,2.4871,2.4963,2.5162,2.5243,2.5334,2.5463,2.5556,2.5681,2.5773,2.5948,2.6016,2.6165,2.6291,2.6513,2.6638,2.678,2.681,2.6845,2.6832,2.6799,2.681,2.6803,2.6812,2.6845,2.6845,2.6845,2.6845,0,2.4933,2.4992,2.5123,2.5276,2.5385,2.5511,2.5639,2.5699,2.5848,2.5945,2.6094,2.6191,2.6382,2.6528,2.6684,2.6774,2.6833,2.6848,2.6867,2.6837,2.679,2.6815,2.6731,2.6844,2.6844,2.6844,2.6844,2.6844,2.4959,2.5044,2.5197,2.534,2.545,2.5567,2.5661,2.5771,2.5898,2.6066,2.6131,2.628,2.6423,2.6639,2.6729,2.6846,2.6855,2.6882,2.6889,2.6894,2.6889,2.6771,2.6874,2.6874,2.6874,2.6875,2.6875,0,2.5025,2.5128,2.5258,2.5436,2.5547,2.5595,2.5739,2.5828,2.596,2.609,2.6212,2.638,2.6521,2.6657,2.6805,2.6871,2.6902,2.6906,2.6902,2.6921,2.6873,2.6842,2.6878,2.6878,2.6878,2.6878,2.6878,2.6878,2.5073,2.5221,2.5297,2.5499,2.56,2.5751,2.5828,2.5935,2.604,2.6224,2.6343,2.6432,2.6563,2.672,2.6851,2.6887,2.6936,2.6932,2.6975,2.6927,2.6925,2.6923,2.6895,2.6942,2.6942,2.7015,2.7015,2.7016]}]]